Time,TemperatureF,DewpointF,PressureIn,WindDirection,WindDirectionDegrees,WindSpeedMPH,WindSpeedGustMPH,Humidity,HourlyPrecipIn,Conditions,Clouds,dailyrainin,SolarRadiationWatts/m^2,SoftwareType,DateUTC
2013-05-22 00:00:00,59.6,41.4,29.90,North,360,6.0,11.0,51,0.00,,,0.00,0,Wunderground v.1.15,2013-05-22 07:00:00,
2013-05-22 00:05:00,60.5,29.7,29.91,North,5,9.0,11.0,31,0.00,,,0.00,0,Wunderground v.1.15,2013-05-22 07:05:00,
2013-05-22 00:10:00,61.2,27.8,29.91,North,360,11.0,11.0,28,0.00,,,0.00,0,Wunderground v.1.15,2013-05-22 07:10:00,
2013-05-22 00:15:00,61.4,28.0,29.91,North,11,12.0,12.0,28,0.00,,,0.00,0,Wunderground v.1.15,2013-05-22 07:15:00,
2013-05-22 00:20:00,61.3,27.0,29.91,North,350,13.0,13.0,27,0.00,,,0.00,0,Wunderground v.1.15,2013-05-22 07:20:00,
2013-05-22 00:25:00,61.1,26.8,29.92,NNW,348,13.0,14.0,27,0.00,,,0.00,0,Wunderground v.1.15,2013-05-22 07:25:00,
2013-05-22 00:30:00,60.6,26.4,29.92,NNW,346,12.0,12.0,27,0.00,,,0.00,0,Wunderground v.1.15,2013-05-22 07:30:00,
2013-05-22 00:35:00,60.2,26.9,29.92,NW,315,11.0,12.0,28,0.00,,,0.00,0,Wunderground v.1.15,2013-05-22 07:35:00,
2013-05-22 00:40:00,59.7,26.5,29.92,NNW,333,12.0,13.0,28,0.00,,,0.00,0,Wunderground v.1.15,2013-05-22 07:40:00,
2013-05-22 00:45:00,59.4,27.1,29.92,NW,318,13.0,13.0,29,0.00,,,0.00,0,Wunderground v.1.15,2013-05-22 07:45:00,
2013-05-22 00:50:00,59.1,27.7,29.92,NW,315,11.0,11.0,30,0.00,,,0.00,0,Wunderground v.1.15,2013-05-22 07:50:00,
2013-05-22 00:55:00,58.9,27.5,29.92,NNW,333,9.0,11.0,30,0.00,,,0.00,0,Wunderground v.1.15,2013-05-22 07:55:00,
2013-05-22 01:00:00,58.7,27.3,29.93,North,360,10.0,15.0,30,0.00,,,0.00,0,Wunderground v.1.15,2013-05-22 08:00:00,
2013-05-22 01:05:00,58.4,27.1,29.93,WNW,294,11.0,15.0,30,0.00,,,0.00,0,Wunderground v.1.15,2013-05-22 08:05:00,
2013-05-22 01:10:00,58.2,27.7,29.93,NNW,336,11.0,11.0,31,0.00,,,0.00,0,Wunderground v.1.15,2013-05-22 08:10:00,
2013-05-22 01:15:00,58.0,27.5,29.93,NNW,334,11.0,20.0,31,0.00,,,0.00,0,Wunderground v.1.15,2013-05-22 08:15:00,
2013-05-22 01:20:00,57.8,27.3,29.93,NNW,337,12.0,12.0,31,0.00,,,0.00,0,Wunderground v.1.15,2013-05-22 08:20:00,
2013-05-22 01:25:00,57.6,27.2,29.93,NNW,337,12.0,12.0,31,0.00,,,0.00,0,Wunderground v.1.15,2013-05-22 08:25:00,
2013-05-22 01:30:00,57.5,27.1,29.93,North,9,10.0,10.0,31,0.00,,,0.00,0,Wunderground v.1.15,2013-05-22 08:30:00,
2013-05-22 01:35:00,57.3,26.9,29.93,NNW,346,10.0,11.0,31,0.00,,,0.00,0,Wunderground v.1.15,2013-05-22 08:35:00,
2013-05-22 01:40:00,57.1,26.7,29.94,NW,326,11.0,16.0,31,0.00,,,0.00,0,Wunderground v.1.15,2013-05-22 08:40:00,
2013-05-22 01:45:00,57.0,27.4,29.93,NW,319,12.0,16.0,32,0.00,,,0.00,0,Wunderground v.1.15,2013-05-22 08:45:00,
2013-05-22 01:50:00,56.9,27.3,29.94,North,360,12.0,15.0,32,0.00,,,0.00,0,Wunderground v.1.15,2013-05-22 08:50:00,
2013-05-22 01:55:00,56.7,27.9,29.94,NNW,342,12.0,15.0,33,0.00,,,0.00,0,Wunderground v.1.15,2013-05-22 08:55:00,
2013-05-22 02:00:00,56.5,27.7,29.93,NNW,336,11.0,11.0,33,0.00,,,0.00,0,Wunderground v.1.15,2013-05-22 09:00:00,
2013-05-22 02:05:00,56.4,27.6,29.94,NW,309,11.0,11.0,33,0.00,,,0.00,0,Wunderground v.1.15,2013-05-22 09:05:00,
2013-05-22 02:10:00,56.4,26.9,29.94,North,355,12.0,12.0,32,0.00,,,0.00,0,Wunderground v.1.15,2013-05-22 09:10:00,
2013-05-22 02:15:00,56.3,27.5,29.94,NNW,344,12.0,12.0,33,0.00,,,0.00,0,Wunderground v.1.15,2013-05-22 09:15:00,
2013-05-22 02:20:00,56.2,27.4,29.95,North,360,11.0,11.0,33,0.00,,,0.00,0,Wunderground v.1.15,2013-05-22 09:20:00,
2013-05-22 02:25:00,56.0,27.3,29.94,NNW,330,11.0,11.0,33,0.00,,,0.00,0,Wunderground v.1.15,2013-05-22 09:25:00,
2013-05-22 02:30:00,56.0,27.3,29.94,NW,326,10.0,13.0,33,0.00,,,0.00,0,Wunderground v.1.15,2013-05-22 09:30:00,
2013-05-22 02:35:00,55.9,27.2,29.94,North,9,10.0,15.0,33,0.00,,,0.00,0,Wunderground v.1.15,2013-05-22 09:35:00,
2013-05-22 02:40:00,55.8,27.1,29.94,North,349,10.0,10.0,33,0.00,,,0.00,0,Wunderground v.1.15,2013-05-22 09:40:00,
2013-05-22 02:45:00,55.7,27.0,29.94,WNW,300,10.0,10.0,33,0.00,,,0.00,0,Wunderground v.1.15,2013-05-22 09:45:00,
2013-05-22 02:50:00,55.6,26.9,29.94,North,5,9.0,11.0,33,0.00,,,0.00,0,Wunderground v.1.15,2013-05-22 09:50:00,
2013-05-22 02:55:00,55.5,26.1,29.94,NNW,346,10.0,14.0,32,0.00,,,0.00,0,Wunderground v.1.15,2013-05-22 09:55:00,
2013-05-22 03:00:00,55.3,25.9,29.94,NNE,17,11.0,11.0,32,0.00,,,0.00,0,Wunderground v.1.15,2013-05-22 10:00:00,
2013-05-22 03:05:00,55.2,25.8,29.94,NNW,338,11.0,13.0,32,0.00,,,0.00,0,Wunderground v.1.15,2013-05-22 10:05:00,
2013-05-22 03:10:00,55.0,25.6,29.94,NNW,332,11.0,11.0,32,0.00,,,0.00,0,Wunderground v.1.15,2013-05-22 10:10:00,
2013-05-22 03:15:00,54.9,25.6,29.94,NNW,337,10.0,11.0,32,0.00,,,0.00,0,Wunderground v.1.15,2013-05-22 10:15:00,
2013-05-22 03:20:00,54.8,25.5,29.94,NW,316,11.0,14.0,32,0.00,,,0.00,0,Wunderground v.1.15,2013-05-22 10:20:00,
2013-05-22 03:25:00,54.6,26.0,29.94,NW,309,11.0,14.0,33,0.00,,,0.00,0,Wunderground v.1.15,2013-05-22 10:25:00,
2013-05-22 03:30:00,54.5,26.0,29.94,NNW,346,10.0,11.0,33,0.00,,,0.00,0,Wunderground v.1.15,2013-05-22 10:30:00,
2013-05-22 03:35:00,54.3,25.8,29.94,NNW,340,11.0,11.0,33,0.00,,,0.00,0,Wunderground v.1.15,2013-05-22 10:35:00,
2013-05-22 03:40:00,54.2,25.7,29.94,NNW,338,11.0,11.0,33,0.00,,,0.00,0,Wunderground v.1.15,2013-05-22 10:40:00,
2013-05-22 03:45:00,54.1,26.3,29.94,North,355,11.0,14.0,34,0.00,,,0.00,0,Wunderground v.1.15,2013-05-22 10:45:00,
2013-05-22 03:50:00,54.1,26.3,29.94,NNW,336,9.0,12.0,34,0.00,,,0.00,0,Wunderground v.1.15,2013-05-22 10:50:00,
2013-05-22 03:55:00,53.9,26.1,29.94,North,349,8.0,12.0,34,0.00,,,0.00,0,Wunderground v.1.15,2013-05-22 10:55:00,
2013-05-22 04:00:00,53.8,26.1,29.95,NNW,338,10.0,11.0,34,0.00,,,0.00,0,Wunderground v.1.15,2013-05-22 11:00:00,
2013-05-22 04:05:00,53.7,26.0,29.94,North,360,10.0,11.0,34,0.00,,,0.00,0,Wunderground v.1.15,2013-05-22 11:05:00,
2013-05-22 04:10:00,53.6,25.9,29.94,NW,320,9.0,9.0,34,0.00,,,0.00,0,Wunderground v.1.15,2013-05-22 11:10:00,
2013-05-22 04:15:00,53.6,25.9,29.93,North,355,8.0,10.0,34,0.00,,,0.00,0,Wunderground v.1.15,2013-05-22 11:15:00,
2013-05-22 04:20:00,53.5,26.5,29.94,North,5,8.0,8.0,35,0.00,,,0.00,0,Wunderground v.1.15,2013-05-22 11:20:00,
2013-05-22 04:25:00,53.4,26.4,29.94,NNW,347,7.0,10.0,35,0.00,,,0.00,0,Wunderground v.1.15,2013-05-22 11:25:00,
2013-05-22 04:30:00,53.3,26.3,29.94,NNW,340,7.0,7.0,35,0.00,,,0.00,0,Wunderground v.1.15,2013-05-22 11:30:00,
2013-05-22 04:35:00,53.1,26.1,29.94,North,355,7.0,10.0,35,0.00,,,0.00,0,Wunderground v.1.15,2013-05-22 11:35:00,
2013-05-22 04:40:00,53.0,26.0,29.94,NNW,330,6.0,6.0,35,0.00,,,0.00,0,Wunderground v.1.15,2013-05-22 11:40:00,
2013-05-22 04:45:00,52.9,26.0,29.94,NNW,340,6.0,10.0,35,0.00,,,0.00,0,Wunderground v.1.15,2013-05-22 11:45:00,
2013-05-22 05:00:00,52.6,26.4,29.94,WNW,298,5.0,11.0,36,0.00,,,0.00,0,Wunderground v.1.15,2013-05-22 12:00:00,
2013-05-22 05:05:00,52.5,26.3,29.93,NW,320,6.0,11.0,36,0.00,,,0.00,0,Wunderground v.1.15,2013-05-22 12:05:00,
2013-05-22 05:09:00,52.8,26.6,29.94,NW,321,7.0,7.0,36,0.00,,,0.00,0,Wunderground v.1.15,2013-05-22 12:09:00,
2013-05-22 05:10:00,52.4,26.2,29.93,NW,325,6.0,10.0,36,0.00,,,0.00,0,Wunderground v.1.15,2013-05-22 12:10:00,
2013-05-22 05:14:00,52.7,26.5,29.93,NW,323,6.0,10.0,36,0.00,,,0.00,0,Wunderground v.1.15,2013-05-22 12:14:00,
2013-05-22 05:34:00,52.3,26.8,29.94,NW,321,6.0,10.0,37,0.00,,,0.00,0,Wunderground v.1.15,2013-05-22 12:34:00,
2013-05-22 05:39:00,52.2,26.7,29.94,NW,323,6.0,6.0,37,0.00,,,0.00,0,Wunderground v.1.15,2013-05-22 12:39:00,
2013-05-22 05:49:00,51.9,27.7,29.94,WNW,287,5.0,5.0,39,0.00,,,0.00,5,Wunderground v.1.15,2013-05-22 12:49:00,
2013-05-22 05:50:00,51.2,28.9,29.94,NW,304,3.0,10.0,42,0.00,,,0.00,16,Wunderground v.1.15,2013-05-22 12:50:00,
2013-05-22 05:54:00,51.8,28.2,29.94,WNW,299,4.0,10.0,40,0.00,,,0.00,7,Wunderground v.1.15,2013-05-22 12:54:00,
2013-05-22 05:55:00,51.2,28.9,29.94,NW,313,4.0,10.0,42,0.00,,,0.00,21,Wunderground v.1.15,2013-05-22 12:55:00,
2013-05-22 06:04:00,51.4,29.1,29.94,WNW,292,3.0,10.0,42,0.00,,,0.00,14,Wunderground v.1.15,2013-05-22 13:04:00,
2013-05-22 06:10:00,51.6,28.6,29.95,NW,316,6.0,6.0,41,0.00,,,0.00,49,Wunderground v.1.15,2013-05-22 13:10:00,
2013-05-22 06:19:00,51.3,29.0,29.94,WNW,295,5.0,5.0,42,0.00,,,0.00,30,Wunderground v.1.15,2013-05-22 13:19:00,
2013-05-22 06:34:00,51.8,28.2,29.94,NW,304,6.0,10.0,40,0.00,,,0.00,62,Wunderground v.1.15,2013-05-22 13:34:00,
2013-05-22 06:39:00,51.9,28.3,29.95,WNW,290,6.0,10.0,40,0.00,,,0.00,76,Wunderground v.1.15,2013-05-22 13:39:00,
2013-05-22 06:44:00,52.1,28.5,29.95,WNW,287,6.0,10.0,40,0.00,,,0.00,93,Wunderground v.1.15,2013-05-22 13:44:00,
2013-05-22 06:45:00,52.5,28.2,29.95,WNW,292,8.0,11.0,39,0.00,,,0.00,165,Wunderground v.1.15,2013-05-22 13:45:00,
2013-05-22 06:54:00,52.2,28.0,29.95,NW,319,8.0,10.0,39,0.00,,,0.00,130,Wunderground v.1.15,2013-05-22 13:54:00,
2013-05-22 06:59:00,52.4,28.1,29.95,NW,319,9.0,9.0,39,0.00,,,0.00,149,Wunderground v.1.15,2013-05-22 13:59:00,
2013-05-22 07:00:00,53.0,28.0,29.95,NW,305,8.0,8.0,38,0.00,,,0.00,223,Wunderground v.1.15,2013-05-22 14:00:00,
2013-05-22 07:09:00,52.6,28.3,29.95,WNW,301,8.0,8.0,39,0.00,,,0.00,185,Wunderground v.1.15,2013-05-22 14:09:00,
2013-05-22 07:14:00,52.8,27.9,29.95,NW,323,8.0,10.0,38,0.00,,,0.00,206,Wunderground v.1.15,2013-05-22 14:14:00,
2013-05-22 07:24:00,53.1,28.1,29.95,NW,305,8.0,10.0,38,0.00,,,0.00,239,Wunderground v.1.15,2013-05-22 14:24:00,
2013-05-22 07:29:00,53.5,28.5,29.96,NW,325,7.0,10.0,38,0.00,,,0.00,255,Wunderground v.1.15,2013-05-22 14:29:00,
2013-05-22 07:39:00,53.9,27.5,29.96,NW,308,8.0,10.0,36,0.00,,,0.00,287,Wunderground v.1.15,2013-05-22 14:39:00,
2013-05-22 07:44:00,53.9,26.8,29.96,NNW,331,10.0,12.0,35,0.00,,,0.00,304,Wunderground v.1.15,2013-05-22 14:44:00,
2013-05-22 07:49:00,54.0,27.6,29.96,WNW,303,11.0,11.0,36,0.00,,,0.00,322,Wunderground v.1.15,2013-05-22 14:49:00,
2013-05-22 07:54:00,54.5,26.7,29.95,West,281,9.0,12.0,34,0.00,,,0.00,338,Wunderground v.1.15,2013-05-22 14:54:00,
2013-05-22 07:59:00,54.5,27.4,29.96,WNW,292,9.0,9.0,35,0.00,,,0.00,355,Wunderground v.1.15,2013-05-22 14:59:00,
2013-05-22 08:04:00,54.5,26.7,29.96,WNW,288,11.0,11.0,34,0.00,,,0.00,371,Wunderground v.1.15,2013-05-22 15:04:00,
2013-05-22 08:09:00,54.7,26.8,29.96,WNW,291,11.0,14.0,34,0.00,,,0.00,388,Wunderground v.1.15,2013-05-22 15:09:00,
2013-05-22 08:14:00,54.7,26.1,29.96,NW,308,11.0,18.0,33,0.00,,,0.00,403,Wunderground v.1.15,2013-05-22 15:14:00,
2013-05-22 08:19:00,54.8,26.2,29.96,NNW,336,12.0,13.0,33,0.00,,,0.00,420,Wunderground v.1.15,2013-05-22 15:19:00,
2013-05-22 08:24:00,54.8,26.2,29.96,NW,304,12.0,18.0,33,0.00,,,0.00,438,Wunderground v.1.15,2013-05-22 15:24:00,
2013-05-22 08:29:00,55.1,26.5,29.96,WNW,300,12.0,12.0,33,0.00,,,0.00,455,Wunderground v.1.15,2013-05-22 15:29:00,
2013-05-22 08:34:00,55.7,27.0,29.96,NW,306,11.0,15.0,33,0.00,,,0.00,471,Wunderground v.1.15,2013-05-22 15:34:00,
2013-05-22 08:39:00,55.6,26.9,29.96,NW,316,11.0,11.0,33,0.00,,,0.00,489,Wunderground v.1.15,2013-05-22 15:39:00,
2013-05-22 08:44:00,55.7,26.3,29.96,WNW,288,13.0,13.0,32,0.00,,,0.00,504,Wunderground v.1.15,2013-05-22 15:44:00,
2013-05-22 08:49:00,55.6,26.9,29.96,NW,315,13.0,13.0,33,0.00,,,0.00,517,Wunderground v.1.15,2013-05-22 15:49:00,
2013-05-22 08:54:00,56.0,27.3,29.96,NW,309,11.0,13.0,33,0.00,,,0.00,534,Wunderground v.1.15,2013-05-22 15:54:00,
2013-05-22 08:59:00,56.2,26.7,29.97,WNW,302,10.0,13.0,32,0.00,,,0.00,548,Wunderground v.1.15,2013-05-22 15:59:00,
2013-05-22 09:04:00,56.1,27.4,29.96,WNW,296,11.0,13.0,33,0.00,,,0.00,568,Wunderground v.1.15,2013-05-22 16:04:00,
2013-05-22 09:09:00,56.4,26.9,29.96,NW,325,12.0,12.0,32,0.00,,,0.00,582,Wunderground v.1.15,2013-05-22 16:09:00,
2013-05-22 09:14:00,56.4,27.6,29.96,WNW,295,11.0,12.0,33,0.00,,,0.00,596,Wunderground v.1.15,2013-05-22 16:14:00,
2013-05-22 09:24:00,56.7,27.1,29.96,NW,313,12.0,16.0,32,0.00,,,0.00,629,Wunderground v.1.15,2013-05-22 16:24:00,
2013-05-22 09:34:00,57.1,27.5,29.96,NW,309,12.0,13.0,32,0.00,,,0.00,657,Wunderground v.1.15,2013-05-22 16:34:00,
2013-05-22 09:44:00,58.5,27.9,29.96,WNW,293,9.0,12.0,31,0.00,,,0.00,675,Wunderground v.1.15,2013-05-22 16:44:00,
2013-05-22 09:54:00,58.6,28.0,29.96,West,277,11.0,13.0,31,0.00,,,0.00,712,Wunderground v.1.15,2013-05-22 16:54:00,
2013-05-22 09:59:00,58.5,27.9,29.95,WNW,302,10.0,11.0,31,0.00,,,0.00,722,Wunderground v.1.15,2013-05-22 16:59:00,
2013-05-22 10:09:00,58.8,28.2,29.96,WNW,300,11.0,12.0,31,0.00,,,0.00,749,Wunderground v.1.15,2013-05-22 17:09:00,
2013-05-22 10:14:00,59.1,27.7,29.95,NW,305,11.0,12.0,30,0.00,,,0.00,761,Wunderground v.1.15,2013-05-22 17:14:00,
2013-05-22 10:19:00,59.3,27.8,29.95,NNW,331,11.0,15.0,30,0.00,,,0.00,786,Wunderground v.1.15,2013-05-22 17:19:00,
2013-05-22 10:24:00,59.2,27.7,29.95,NW,310,12.0,15.0,30,0.00,,,0.00,789,Wunderground v.1.15,2013-05-22 17:24:00,
2013-05-22 10:34:00,60.6,28.1,29.94,West,280,8.0,14.0,29,0.00,,,0.00,810,Wunderground v.1.15,2013-05-22 17:34:00,
2013-05-22 10:44:00,60.1,28.5,29.94,NNW,331,11.0,11.0,30,0.00,,,0.00,837,Wunderground v.1.15,2013-05-22 17:44:00,
2013-05-22 10:49:00,60.7,27.4,29.94,NNW,336,10.0,10.0,28,0.00,,,0.00,847,Wunderground v.1.15,2013-05-22 17:49:00,
2013-05-22 10:54:00,60.6,28.1,29.94,WNW,302,9.0,10.0,29,0.00,,,0.00,853,Wunderground v.1.15,2013-05-22 17:54:00,
2013-05-22 10:59:00,61.2,28.7,29.94,WNW,303,9.0,15.0,29,0.00,,,0.00,863,Wunderground v.1.15,2013-05-22 17:59:00,
2013-05-22 11:04:00,61.4,28.0,29.95,WNW,303,9.0,15.0,28,0.00,,,0.00,879,Wunderground v.1.15,2013-05-22 18:04:00,
2013-05-22 11:09:00,61.3,27.9,29.94,NW,321,9.0,9.0,28,0.00,,,0.00,882,Wunderground v.1.15,2013-05-22 18:09:00,
2013-05-22 11:14:00,61.3,27.0,29.94,WNW,298,10.0,11.0,27,0.00,,,0.00,893,Wunderground v.1.15,2013-05-22 18:14:00,
2013-05-22 11:19:00,62.1,27.7,29.94,NW,316,10.0,11.0,27,0.00,,,0.00,905,Wunderground v.1.15,2013-05-22 18:19:00,
2013-05-22 11:24:00,62.1,26.8,29.94,West,276,9.0,11.0,26,0.00,,,0.00,912,Wunderground v.1.15,2013-05-22 18:24:00,
2013-05-22 11:29:00,62.7,27.3,29.94,WNW,292,8.0,8.0,26,0.00,,,0.00,916,Wunderground v.1.15,2013-05-22 18:29:00,
2013-05-22 11:34:00,62.8,25.4,29.94,WNW,296,9.0,11.0,24,0.00,,,0.00,923,Wunderground v.1.15,2013-05-22 18:34:00,
2013-05-22 11:39:00,62.9,27.5,29.94,WNW,298,10.0,11.0,26,0.00,,,0.00,932,Wunderground v.1.15,2013-05-22 18:39:00,
2013-05-22 11:44:00,62.9,26.5,29.94,NW,317,10.0,11.0,25,0.00,,,0.00,937,Wunderground v.1.15,2013-05-22 18:44:00,
2013-05-22 11:49:00,63.3,26.8,29.94,NW,322,9.0,9.0,25,0.00,,,0.00,940,Wunderground v.1.15,2013-05-22 18:49:00,
2013-05-22 11:59:00,63.3,24.8,29.94,West,278,9.0,9.0,23,0.00,,,0.00,953,Wunderground v.1.15,2013-05-22 18:59:00,
2013-05-22 12:04:00,63.9,25.3,29.94,North,351,9.0,10.0,23,0.00,,,0.00,956,Wunderground v.1.15,2013-05-22 19:04:00,
2013-05-22 12:09:00,63.7,26.2,29.93,WNW,290,8.0,10.0,24,0.00,,,0.00,962,Wunderground v.1.15,2013-05-22 19:09:00,
2013-05-22 12:14:00,64.1,26.5,29.93,WNW,292,8.0,10.0,24,0.00,,,0.00,965,Wunderground v.1.15,2013-05-22 19:14:00,
2013-05-22 12:19:00,64.2,26.6,29.93,West,271,8.0,8.0,24,0.00,,,0.00,970,Wunderground v.1.15,2013-05-22 19:19:00,
2013-05-22 12:24:00,64.2,25.6,29.92,North,351,8.0,10.0,23,0.00,,,0.00,976,Wunderground v.1.15,2013-05-22 19:24:00,
2013-05-22 12:29:00,63.9,25.3,29.93,NW,318,9.0,9.0,23,0.00,,,0.00,977,Wunderground v.1.15,2013-05-22 19:29:00,
2013-05-22 12:34:00,64.9,27.2,29.92,NNE,25,8.0,10.0,24,0.00,,,0.00,979,Wunderground v.1.15,2013-05-22 19:34:00,
2013-05-22 12:39:00,64.3,26.7,29.92,WNW,302,7.0,7.0,24,0.00,,,0.00,981,Wunderground v.1.15,2013-05-22 19:39:00,
2013-05-22 12:44:00,65.1,27.4,29.92,WNW,297,7.0,9.0,24,0.00,,,0.00,983,Wunderground v.1.15,2013-05-22 19:44:00,
2013-05-22 12:49:00,65.3,26.5,29.92,NNW,344,7.0,10.0,23,0.00,,,0.00,986,Wunderground v.1.15,2013-05-22 19:49:00,
2013-05-22 12:59:00,65.8,25.9,29.91,North,360,7.0,10.0,22,0.00,,,0.00,988,Wunderground v.1.15,2013-05-22 19:59:00,
2013-05-22 13:04:00,66.8,27.8,29.92,NNW,341,7.0,10.0,23,0.00,,,0.00,990,Wunderground v.1.15,2013-05-22 20:04:00,
2013-05-22 13:09:00,65.8,26.9,29.91,NW,321,7.0,7.0,23,0.00,,,0.00,990,Wunderground v.1.15,2013-05-22 20:09:00,
2013-05-22 13:14:00,65.9,25.9,29.91,WNW,291,7.0,10.0,22,0.00,,,0.00,983,Wunderground v.1.15,2013-05-22 20:14:00,
2013-05-22 13:19:00,65.9,27.0,29.91,NW,317,7.0,7.0,23,0.00,,,0.00,986,Wunderground v.1.15,2013-05-22 20:19:00,
2013-05-22 13:24:00,66.8,27.8,29.91,North,355,7.0,11.0,23,0.00,,,0.00,983,Wunderground v.1.15,2013-05-22 20:24:00,
2013-05-22 13:29:00,66.6,26.5,29.91,North,355,6.0,10.0,22,0.00,,,0.00,981,Wunderground v.1.15,2013-05-22 20:29:00,
2013-05-22 13:34:00,68.3,26.8,29.91,North,350,6.0,11.0,21,0.00,,,0.00,983,Wunderground v.1.15,2013-05-22 20:34:00,
2013-05-22 13:39:00,67.3,26.0,29.90,North,360,6.0,13.0,21,0.00,,,0.00,976,Wunderground v.1.15,2013-05-22 20:39:00,
2013-05-22 13:44:00,66.9,26.8,29.90,NNW,338,8.0,13.0,22,0.00,,,0.00,977,Wunderground v.1.15,2013-05-22 20:44:00,
2013-05-22 13:49:00,66.7,26.6,29.90,NW,304,9.0,10.0,22,0.00,,,0.00,972,Wunderground v.1.15,2013-05-22 20:49:00,
2013-05-22 13:59:00,67.7,26.3,29.90,NNW,329,7.0,7.0,21,0.00,,,0.00,963,Wunderground v.1.15,2013-05-22 20:59:00,
2013-05-22 14:09:00,69.0,26.2,29.89,NW,313,6.0,11.0,20,0.00,,,0.00,963,Wunderground v.1.15,2013-05-22 21:09:00,
2013-05-22 14:19:00,69.2,21.1,29.89,NNW,339,7.0,7.0,16,0.00,,,0.00,951,Wunderground v.1.15,2013-05-22 21:19:00,
2013-05-22 14:24:00,69.4,22.7,29.89,NW,315,7.0,9.0,17,0.00,,,0.00,940,Wunderground v.1.15,2013-05-22 21:24:00,
2013-05-22 14:29:00,69.2,21.1,29.89,NNW,343,8.0,10.0,16,0.00,,,0.00,940,Wunderground v.1.15,2013-05-22 21:29:00,
2013-05-22 14:34:00,68.9,20.8,29.89,NW,310,9.0,10.0,16,0.00,,,0.00,933,Wunderground v.1.15,2013-05-22 21:34:00,
2013-05-22 14:39:00,69.8,21.5,29.89,NNW,335,6.0,10.0,16,0.00,,,0.00,923,Wunderground v.1.15,2013-05-22 21:39:00,
2013-05-22 14:44:00,70.1,20.3,29.89,NW,309,6.0,10.0,15,0.00,,,0.00,918,Wunderground v.1.15,2013-05-22 21:44:00,
2013-05-22 14:49:00,69.6,21.4,29.88,NNW,342,7.0,7.0,16,0.00,,,0.00,909,Wunderground v.1.15,2013-05-22 21:49:00,
2013-05-22 14:59:00,70.1,20.3,29.88,WNW,283,6.0,10.0,15,0.00,,,0.00,893,Wunderground v.1.15,2013-05-22 21:59:00,
2013-05-22 15:04:00,70.3,18.8,29.88,NNE,19,6.0,13.0,14,0.00,,,0.00,886,Wunderground v.1.15,2013-05-22 22:04:00,
2013-05-22 15:09:00,69.7,16.6,29.88,North,355,7.0,10.0,13,0.00,,,0.00,877,Wunderground v.1.15,2013-05-22 22:09:00,
2013-05-22 15:14:00,70.2,17.0,29.88,North,355,7.0,10.0,13,0.00,,,0.00,868,Wunderground v.1.15,2013-05-22 22:14:00,
2013-05-22 15:19:00,70.4,17.2,29.88,WNW,284,7.0,7.0,13,0.00,,,0.00,856,Wunderground v.1.15,2013-05-22 22:19:00,
2013-05-22 15:24:00,70.9,17.5,29.88,North,355,7.0,13.0,13,0.00,,,0.00,846,Wunderground v.1.15,2013-05-22 22:24:00,
2013-05-22 15:34:00,70.8,17.5,29.87,West,275,7.0,10.0,13,0.00,,,0.00,826,Wunderground v.1.15,2013-05-22 22:34:00,
2013-05-22 15:39:00,70.7,19.1,29.87,WNW,289,7.0,10.0,14,0.00,,,0.00,810,Wunderground v.1.15,2013-05-22 22:39:00,
2013-05-22 15:44:00,70.6,19.0,29.87,North,350,8.0,10.0,14,0.00,,,0.00,800,Wunderground v.1.15,2013-05-22 22:44:00,
2013-05-22 15:49:00,71.0,19.4,29.86,NE,38,9.0,9.0,14,0.00,,,0.00,789,Wunderground v.1.15,2013-05-22 22:49:00,
2013-05-22 15:54:00,70.5,19.0,29.86,WNW,282,7.0,10.0,14,0.00,,,0.00,773,Wunderground v.1.15,2013-05-22 22:54:00,
2013-05-22 15:59:00,70.5,20.6,29.86,North,5,4.0,10.0,15,0.00,,,0.00,759,Wunderground v.1.15,2013-05-22 22:59:00,
2013-05-22 16:04:00,71.2,21.1,29.86,NNW,347,5.0,10.0,15,0.00,,,0.00,749,Wunderground v.1.15,2013-05-22 23:04:00,
2013-05-22 16:09:00,71.0,21.0,29.86,NW,315,7.0,10.0,15,0.00,,,0.00,740,Wunderground v.1.15,2013-05-22 23:09:00,
2013-05-22 16:14:00,71.7,21.5,29.86,North,360,8.0,10.0,15,0.00,,,0.00,724,Wunderground v.1.15,2013-05-22 23:14:00,
2013-05-22 16:19:00,71.3,21.2,29.86,WNW,285,7.0,7.0,15,0.00,,,0.00,712,Wunderground v.1.15,2013-05-22 23:19:00,
2013-05-22 16:24:00,71.6,21.5,29.85,NNW,333,7.0,9.0,15,0.00,,,0.00,694,Wunderground v.1.15,2013-05-22 23:24:00,
2013-05-22 16:29:00,70.8,20.8,29.85,NNE,16,7.0,7.0,15,0.00,,,0.00,677,Wunderground v.1.15,2013-05-22 23:29:00,
2013-05-22 16:39:00,71.4,19.7,29.85,West,277,8.0,8.0,14,0.00,,,0.00,649,Wunderground v.1.15,2013-05-22 23:39:00,
2013-05-22 16:44:00,71.1,21.1,29.85,NW,319,6.0,10.0,15,0.00,,,0.00,636,Wunderground v.1.15,2013-05-22 23:44:00,
2013-05-22 16:49:00,71.5,19.8,29.85,NNW,338,6.0,10.0,14,0.00,,,0.00,619,Wunderground v.1.15,2013-05-22 23:49:00,
2013-05-22 16:59:00,71.3,17.9,29.84,WNW,287,6.0,6.0,13,0.00,,,0.00,596,Wunderground v.1.15,2013-05-22 23:59:00,
2013-05-22 17:04:00,71.4,17.9,29.84,NNW,338,7.0,7.0,13,0.00,,,0.00,577,Wunderground v.1.15,2013-05-23 00:04:00,
2013-05-22 17:14:00,71.8,20.0,29.85,NW,324,6.0,10.0,14,0.00,,,0.00,554,Wunderground v.1.15,2013-05-23 00:14:00,
2013-05-22 17:19:00,71.6,18.1,29.84,North,355,5.0,10.0,13,0.00,,,0.00,534,Wunderground v.1.15,2013-05-23 00:19:00,
2013-05-22 17:29:00,71.5,18.0,29.84,NNW,343,7.0,7.0,13,0.00,,,0.00,504,Wunderground v.1.15,2013-05-23 00:29:00,
2013-05-22 17:34:00,71.4,16.1,29.84,WNW,282,7.0,10.0,12,0.00,,,0.00,487,Wunderground v.1.15,2013-05-23 00:34:00,
2013-05-22 17:39:00,71.4,16.1,29.84,NNE,15,6.0,10.0,12,0.00,,,0.00,475,Wunderground v.1.15,2013-05-23 00:39:00,
2013-05-22 17:44:00,72.1,16.6,29.83,West,265,6.0,10.0,12,0.00,,,0.00,448,Wunderground v.1.15,2013-05-23 00:44:00,
2013-05-22 17:49:00,72.4,16.9,29.83,WNW,288,5.0,10.0,12,0.00,,,0.00,427,Wunderground v.1.15,2013-05-23 00:49:00,
2013-05-22 17:54:00,71.8,16.4,29.83,West,280,5.0,10.0,12,0.00,,,0.00,420,Wunderground v.1.15,2013-05-23 00:54:00,
2013-05-22 18:04:00,71.1,15.9,29.83,NNW,340,4.0,10.0,12,0.00,,,0.00,383,Wunderground v.1.15,2013-05-23 01:04:00,
2013-05-22 18:09:00,71.6,16.2,29.83,NNW,346,4.0,10.0,12,0.00,,,0.00,367,Wunderground v.1.15,2013-05-23 01:09:00,
2013-05-22 18:14:00,71.6,14.2,29.83,North,355,5.0,10.0,11,0.00,,,0.00,350,Wunderground v.1.15,2013-05-23 01:14:00,
2013-05-22 18:19:00,71.4,16.1,29.83,WNW,300,6.0,6.0,12,0.00,,,0.00,332,Wunderground v.1.15,2013-05-23 01:19:00,
2013-05-22 18:24:00,71.5,16.2,29.83,NW,318,6.0,10.0,12,0.00,,,0.00,315,Wunderground v.1.15,2013-05-23 01:24:00,
2013-05-22 18:29:00,71.6,16.2,29.83,West,265,5.0,10.0,12,0.00,,,0.00,297,Wunderground v.1.15,2013-05-23 01:29:00,
2013-05-22 18:34:00,71.6,18.1,29.83,WSW,241,4.0,10.0,13,0.00,,,0.00,274,Wunderground v.1.15,2013-05-23 01:34:00,
2013-05-22 18:39:00,71.1,34.5,29.83,SW,228,5.0,10.0,26,0.00,,,0.00,258,Wunderground v.1.15,2013-05-23 01:39:00,
2013-05-22 18:44:00,70.6,35.0,29.83,WSW,250,6.0,10.0,27,0.00,,,0.00,239,Wunderground v.1.15,2013-05-23 01:44:00,
2013-05-22 18:49:00,70.2,36.4,29.83,South,182,7.0,11.0,29,0.00,,,0.00,223,Wunderground v.1.15,2013-05-23 01:49:00,
2013-05-22 18:54:00,69.9,37.0,29.83,South,183,7.0,11.0,30,0.00,,,0.00,204,Wunderground v.1.15,2013-05-23 01:54:00,
2013-05-22 18:59:00,69.5,37.5,29.83,SSW,207,7.0,7.0,31,0.00,,,0.00,183,Wunderground v.1.15,2013-05-23 01:59:00,
2013-05-22 19:09:00,69.2,36.4,29.83,SW,217,7.0,7.0,30,0.00,,,0.00,146,Wunderground v.1.15,2013-05-23 02:09:00,
2013-05-22 19:14:00,68.7,36.0,29.83,SSW,209,7.0,10.0,30,0.00,,,0.00,128,Wunderground v.1.15,2013-05-23 02:14:00,
2013-05-22 19:19:00,68.2,35.6,29.83,SW,228,8.0,15.0,30,0.00,,,0.00,111,Wunderground v.1.15,2013-05-23 02:19:00,
2013-05-22 19:24:00,67.9,35.3,29.83,South,183,8.0,15.0,30,0.00,,,0.00,95,Wunderground v.1.15,2013-05-23 02:24:00,
2013-05-22 19:29:00,67.5,35.0,29.83,SW,229,9.0,9.0,30,0.00,,,0.00,69,Wunderground v.1.15,2013-05-23 02:29:00,
2013-05-22 19:34:00,67.1,35.4,29.83,SW,223,10.0,10.0,31,0.00,,,0.00,63,Wunderground v.1.15,2013-05-23 02:34:00,
2013-05-22 19:39:00,66.8,36.0,29.83,SSW,199,9.0,9.0,32,0.00,,,0.00,53,Wunderground v.1.15,2013-05-23 02:39:00,
2013-05-22 19:44:00,66.4,35.6,29.83,SW,216,8.0,10.0,32,0.00,,,0.00,42,Wunderground v.1.15,2013-05-23 02:44:00,
2013-05-22 19:49:00,66.2,35.4,29.83,SW,231,8.0,10.0,32,0.00,,,0.00,30,Wunderground v.1.15,2013-05-23 02:49:00,
2013-05-22 19:54:00,65.8,35.9,29.83,SW,234,8.0,10.0,33,0.00,,,0.00,23,Wunderground v.1.15,2013-05-23 02:54:00,
2013-05-22 19:59:00,65.4,36.3,29.83,SW,217,9.0,13.0,34,0.00,,,0.00,16,Wunderground v.1.15,2013-05-23 02:59:00,
2013-05-22 20:04:00,65.0,35.9,29.83,SW,217,9.0,13.0,34,0.00,,,0.00,12,Wunderground v.1.15,2013-05-23 03:04:00,
2013-05-22 20:09:00,64.7,36.4,29.83,SW,233,8.0,12.0,35,0.00,,,0.00,9,Wunderground v.1.15,2013-05-23 03:09:00,
2013-05-22 20:14:00,64.4,36.8,29.83,SW,215,8.0,12.0,36,0.00,,,0.00,7,Wunderground v.1.15,2013-05-23 03:14:00,
2013-05-22 20:19:00,64.1,37.3,29.83,SSW,208,8.0,8.0,37,0.00,,,0.00,5,Wunderground v.1.15,2013-05-23 03:19:00,
2013-05-22 20:24:00,63.8,37.7,29.83,SSW,197,7.0,10.0,38,0.00,,,0.00,0,Wunderground v.1.15,2013-05-23 03:24:00,
2013-05-22 20:29:00,63.6,38.2,29.84,SW,233,7.0,10.0,39,0.00,,,0.00,0,Wunderground v.1.15,2013-05-23 03:29:00,
2013-05-22 20:34:00,63.3,38.6,29.84,SW,221,7.0,10.0,40,0.00,,,0.00,0,Wunderground v.1.15,2013-05-23 03:34:00,
2013-05-22 20:39:00,63.0,39.5,29.83,SW,218,9.0,10.0,42,0.00,,,0.00,0,Wunderground v.1.15,2013-05-23 03:39:00,
2013-05-22 20:44:00,62.7,39.9,29.84,SW,215,8.0,10.0,43,0.00,,,0.00,0,Wunderground v.1.15,2013-05-23 03:44:00,
2013-05-22 20:45:00,61.6,41.7,29.83,SW,220,5.0,7.0,48,0.00,,,0.00,0,Wunderground v.1.15,2013-05-23 03:45:00,
2013-05-22 20:49:00,62.4,40.2,29.83,SW,220,6.0,6.0,44,0.00,,,0.00,0,Wunderground v.1.15,2013-05-23 03:49:00,
2013-05-22 20:50:00,61.3,42.0,29.84,SW,221,7.0,10.0,49,0.00,,,0.00,0,Wunderground v.1.15,2013-05-23 03:50:00,
2013-05-22 20:54:00,62.1,41.1,29.84,SW,217,6.0,10.0,46,0.00,,,0.00,0,Wunderground v.1.15,2013-05-23 03:54:00,
2013-05-22 20:55:00,61.0,42.2,29.84,SW,235,6.0,10.0,50,0.00,,,0.00,0,Wunderground v.1.15,2013-05-23 03:55:00,
2013-05-22 20:59:00,61.9,41.4,29.84,SW,229,5.0,5.0,47,0.00,,,0.00,0,Wunderground v.1.15,2013-05-23 03:59:00,
2013-05-22 21:00:00,60.8,42.5,29.84,WSW,245,6.0,10.0,51,0.00,,,0.00,0,Wunderground v.1.15,2013-05-23 04:00:00,
2013-05-22 21:05:00,60.5,42.8,29.84,SW,217,6.0,10.0,52,0.00,,,0.00,0,Wunderground v.1.15,2013-05-23 04:05:00,
2013-05-22 21:10:00,60.2,43.0,29.83,WSW,245,7.0,7.0,53,0.00,,,0.00,0,Wunderground v.1.15,2013-05-23 04:10:00,
2013-05-22 21:15:00,59.9,42.7,29.83,SW,222,6.0,10.0,53,0.00,,,0.00,0,Wunderground v.1.15,2013-05-23 04:15:00,
2013-05-22 21:20:00,59.6,42.9,29.83,SSW,203,5.0,10.0,54,0.00,,,0.00,0,Wunderground v.1.15,2013-05-23 04:20:00,
2013-05-22 21:25:00,59.3,43.1,29.83,SSW,211,6.0,10.0,55,0.00,,,0.00,0,Wunderground v.1.15,2013-05-23 04:25:00,
2013-05-22 21:30:00,59.1,43.4,29.84,SSW,195,6.0,6.0,56,0.00,,,0.00,0,Wunderground v.1.15,2013-05-23 04:30:00,
2013-05-22 21:35:00,58.8,43.1,29.84,SSW,213,6.0,10.0,56,0.00,,,0.00,0,Wunderground v.1.15,2013-05-23 04:35:00,
2013-05-22 21:40:00,58.6,42.9,29.84,SW,226,6.0,6.0,56,0.00,,,0.00,0,Wunderground v.1.15,2013-05-23 04:40:00,
2013-05-22 21:45:00,58.4,43.2,29.84,SW,217,5.0,7.0,57,0.00,,,0.00,0,Wunderground v.1.15,2013-05-23 04:45:00,
2013-05-22 21:50:00,58.1,43.4,29.84,SSW,211,5.0,5.0,58,0.00,,,0.00,0,Wunderground v.1.15,2013-05-23 04:50:00,
2013-05-22 21:55:00,58.0,43.3,29.84,SW,215,4.0,10.0,58,0.00,,,0.00,0,Wunderground v.1.15,2013-05-23 04:55:00,
2013-05-22 22:00:00,57.7,43.5,29.84,SSW,211,4.0,10.0,59,0.00,,,0.00,0,Wunderground v.1.15,2013-05-23 05:00:00,
2013-05-22 22:05:00,57.4,43.2,29.84,SSW,205,5.0,10.0,59,0.00,,,0.00,0,Wunderground v.1.15,2013-05-23 05:05:00,
2013-05-22 22:10:00,57.2,43.4,29.84,SSW,209,5.0,5.0,60,0.00,,,0.00,0,Wunderground v.1.15,2013-05-23 05:10:00,
2013-05-22 22:25:00,57.0,43.7,29.84,SSW,204,4.0,10.0,61,0.00,,,0.00,0,Wunderground v.1.15,2013-05-23 05:25:00,
2013-05-22 22:30:00,56.7,43.4,29.84,South,185,3.0,10.0,61,0.00,,,0.00,0,Wunderground v.1.15,2013-05-23 05:30:00,
2013-05-22 22:35:00,56.5,43.6,29.84,SSW,206,3.0,10.0,62,0.00,,,0.00,0,Wunderground v.1.15,2013-05-23 05:35:00,
2013-05-22 22:40:00,56.4,43.5,29.84,SSW,208,3.0,10.0,62,0.00,,,0.00,0,Wunderground v.1.15,2013-05-23 05:40:00,
2013-05-22 22:45:00,56.4,43.5,29.84,SSW,207,4.0,10.0,62,0.00,,,0.00,0,Wunderground v.1.15,2013-05-23 05:45:00,
2013-05-22 22:50:00,56.2,43.3,29.84,SSW,207,3.0,3.0,62,0.00,,,0.00,0,Wunderground v.1.15,2013-05-23 05:50:00,
2013-05-22 22:55:00,56.2,43.8,29.84,SSW,210,3.0,10.0,63,0.00,,,0.00,0,Wunderground v.1.15,2013-05-23 05:55:00,
2013-05-22 23:00:00,56.2,43.8,29.84,SSW,211,3.0,3.0,63,0.00,,,0.00,0,Wunderground v.1.15,2013-05-23 06:00:00,
2013-05-22 23:05:00,56.0,43.6,29.84,SSW,210,3.0,5.0,63,0.00,,,0.00,0,Wunderground v.1.15,2013-05-23 06:05:00,
2013-05-22 23:10:00,55.9,43.5,29.84,SW,215,4.0,10.0,63,0.00,,,0.00,0,Wunderground v.1.15,2013-05-23 06:10:00,
2013-05-22 23:15:00,55.9,43.5,29.84,SSW,208,4.0,10.0,63,0.00,,,0.00,0,Wunderground v.1.15,2013-05-23 06:15:00,
2013-05-22 23:20:00,55.9,43.5,29.84,SSW,208,4.0,4.0,63,0.00,,,0.00,0,Wunderground v.1.15,2013-05-23 06:20:00,
2013-05-22 23:25:00,55.7,43.3,29.84,SSW,201,4.0,10.0,63,0.00,,,0.00,0,Wunderground v.1.15,2013-05-23 06:25:00,
2013-05-22 23:30:00,55.4,43.0,29.84,SSW,197,3.0,10.0,63,0.00,,,0.00,0,Wunderground v.1.15,2013-05-23 06:30:00,
2013-05-22 23:35:00,55.2,43.2,29.84,SSW,198,3.0,10.0,64,0.00,,,0.00,0,Wunderground v.1.15,2013-05-23 06:35:00,
2013-05-22 23:40:00,55.1,43.1,29.84,SSW,202,4.0,10.0,64,0.00,,,0.00,0,Wunderground v.1.15,2013-05-23 06:40:00,
2013-05-22 23:45:00,55.0,43.0,29.84,SSW,202,4.0,10.0,64,0.00,,,0.00,0,Wunderground v.1.15,2013-05-23 06:45:00,
2013-05-22 23:50:00,54.9,42.9,29.85,South,179,3.0,10.0,64,0.00,,,0.00,0,Wunderground v.1.15,2013-05-23 06:50:00,
2013-05-22 23:55:00,54.9,43.4,29.85,South,179,2.0,10.0,65,0.00,,,0.00,0,Wunderground v.1.15,2013-05-23 06:55:00,